Location: Czu?�w
(50.1404°N, 18.9919°E)
Time: 03:45:41
(UTC+00:00)

Cosmos 1455 - Pass Details

Date: 27 October 2020
Orbit: 500 x 521 km, 82.5° (Epoch: 24 November)

Event Time Altitude Azimuth Distance (km) Brightness Sun altitude
Rises 16:51:02 0° 160° (SSE) 2,599 5.6 -13.7°
Reaches altitude 10° 16:53:21 10° 147° (SSE) 1,723 4.6 -14.1°
Enters shadow 16:56:01 25° 104° (ESE) 1,055 3.2 -14.5°
